千帆星座-36 (QIANFAN-36)

导读

QIANFAN-36 是中国北斗卫星导航系统的重要组成部分,于2024年成功发射。该卫星主要用于提供高精度定位、导航和授时服务,增强北斗系统在全球范围内的覆盖与稳定性。QIANFAN-36 采用先进技术和国产化设备,提升了系统的自主可控能力,为交通运输、农业、通信、应急救援等多个领域提供关键支持,进一步推动北斗系统在国际上的应用与发展。

Basic Information
目录编号:
61569
目录名称:
QIANFAN-36
国际标识:
2024-185T
轨道中心:
EARTH
卫星名称:
千帆星座-36
卫星全名:
千帆星座-36 (QIANFAN-36)
卫星状态:
在轨 (已飞行696 天)
发射日期:
2024-10-15 UTC
国别 :
中国 (CN)
星等 :
--
This satellite is enrolled in the Space Conjunction Data Service (SCDS) and the current flight risk assessment level is: No High Risk
Orbit Information
数据来源 国际轨道数据 AOE轨道数据
星历时间 2026-09-11T14:02:07+0800
9小时前
查看轨道信息
2026-09-10T06:00:00+0800
1天前
查看轨道信息
半长轴 7429.694km 7429.694km
偏心率 0.000556 0.0005782
轨道倾角 88.979° 88.979°
近地点辐角 348.432° 352.485°
升交点赤经 52.644° 52.783°
平近点角 11.671° 337.253°
近地点 1047.426km 1047.261km
远地点 1055.688km 1055.853km
周期 106.222分钟 106.222分钟
每日圈数 13.556464 13.556463
Detailed Information
卫星平台:
36
覆盖范围:
全球
运营商:
上海垣信卫星科技有限公司
运营商所在国:
中国
使用方式:
暂无
Satellite Introduction
千帆星座,也被称为“G60星链”计划,是中国版“星链”的重要组成部分,旨在打造一个由1.4万多颗低轨宽频多媒体卫星构成的庞大星座。千帆星座计划由上海垣信卫星科技有限公司负责实施,于2023年启动建设。该项目是我国第二个低轨卫星大星座,旨在通过构建庞大的卫星网络,为全球用户提供高质量的通信和宽带互联网服务。
2D Orbit Map
3D Orbit Map
Orbit Altitude Analysis Chart
Orbit Inclination Analysis Chart
Orbit Comprehensive Analysis Chart
View Comprehensive Chart
Conjunction Data List
Event ID Objects TCA Miss Dist (km) Collision Risk Probability Collision Risk Index (CRI) Action
CDM_260912-071202-897806-156923
2026-09-12T
07:12:07+0000
1.972 km
极远距离
2.840969E-6 低风险 0.44
Miss Distance Evolution Trend with All Objects
Collision Probability Evolution Trend with All Objects